Weather History for Kimball, NE

Change the Weather History Date:

Monday, February 11, 2013

  Actual Average (KSNY) Record (KSNY)
Temperature  
Mean Temperature 16 °F 31 °F  
Max Temperature 31 °F 44 °F 73 °F (1962)
Min Temperature 3 °F 18 °F -14 °F (1986)
Degree Days  
Heating Degree Days 48 34  
Month to date heating degree days 382  
Since 1 July heating degree days 4039  
Cooling Degree Days 0 0  
Month to date cooling degree days 0  
Year to date cooling degree days 0  
Moisture  
Dew Point 8 °F    
Average Humidity 72    
Maximum Humidity 85    
Minimum Humidity 51    
Precipitation  
Precipitation 0.00 in 0.01 in 0.59 in (1993)
Month to date precipitation 0.10  
Year to date precipitation 0.30  
Sea Level Pressure  
Sea Level Pressure 29.99 in    
Wind  
Wind Speed 8 mph (West)    
Max Wind Speed 13 mph    
Max Gust Speed -    
Visibility 10 miles    
Events      
T = Trace of Precipitation, MM = Missing Value Source: NWS Daily Summary

Daily Weather History Graph

Daily Weather History Graph

Search for Another Location

Airport:

Trip Planner

Search our weather history database for the weather conditions in past years. The results will help you decide how hot, cold, wet, or windy it might be!

Date:

Astronomy

Feb. 11, 2013 Rise Set
Actual Time 7:54 AM CST 6:24 PM CST
Civil Twilight 7:25 AM CST 6:52 PM CST
Nautical Twilight 6:53 AM CST 7:25 PM CST
Astronomical Twilight 6:21 AM CST 7:57 PM CST
Moon 8:18 AM CST (2/11) 8:25 PM CST (2/11)
Length of Visible Light 11h 27m
Length of Day
10h 30m
Waxing Crescent, 3% of the Moon is Illuminated
Feb 11
Waxing Crescent
Feb 17
First Quarter
Feb 25
Full
Mar 4
Last Quarter
Mar 11
New

Hourly Weather History & Observations

Time (CST) Temp. Windchill Dew Point Humidity Pressure Visibility Wind Dir Wind Speed Gust Speed Precip Events Conditions
12:15 AM 16.0 °F 5.3 °F 9.9 °F 77% 29.99 in 10.0 mi NW 8.1 mph - N/A   Scattered Clouds
12:35 AM 14.2 °F 3.1 °F 9.0 °F 80% 29.98 in 10.0 mi NW 8.1 mph - N/A   Scattered Clouds
12:55 AM 12.6 °F 1.1 °F 8.2 °F 83% 29.99 in 10.0 mi West 8.1 mph - N/A   Clear
1:15 AM 11.8 °F -2.3 °F 7.7 °F 83% 29.99 in 10.0 mi West 11.5 mph - N/A   Clear
1:35 AM 11.5 °F -1.9 °F 7.5 °F 84% 30.00 in 10.0 mi West 10.4 mph - N/A   Clear
1:55 AM 10.4 °F -4.1 °F 6.8 °F 85% 30.01 in 10.0 mi West 11.5 mph - N/A   Clear
2:15 AM 11.3 °F -1.3 °F 7.3 °F 84% 30.01 in 10.0 mi West 9.2 mph - N/A   Clear
2:55 AM 10.8 °F -2.8 °F 6.4 °F 83% 30.00 in 10.0 mi WNW 10.4 mph - N/A   Clear
3:15 AM 10.0 °F -3.7 °F 5.9 °F 83% 30.01 in 10.0 mi WNW 10.4 mph - N/A   Clear
3:35 AM 9.5 °F -3.5 °F 5.4 °F 83% 30.01 in 10.0 mi WNW 9.2 mph - N/A   Clear
3:55 AM 9.1 °F -1.9 °F 5.0 °F 83% 30.01 in 10.0 mi WNW 6.9 mph - N/A   Clear
4:15 AM 9.3 °F -1.7 °F 5.0 °F 83% 30.01 in 10.0 mi WNW 6.9 mph - N/A   Clear
4:35 AM 8.4 °F -2.8 °F 4.1 °F 83% 30.01 in 10.0 mi West 6.9 mph - N/A   Clear
4:55 AM 7.7 °F -5.8 °F 3.7 °F 84% 30.00 in 10.0 mi West 9.2 mph - N/A   Clear
5:15 AM 5.7 °F -4.8 °F 1.8 °F 84% 30.00 in 10.0 mi West 5.8 mph - N/A   Clear
5:35 AM 5.2 °F -6.7 °F 1.4 °F 84% 30.01 in 10.0 mi WNW 6.9 mph - N/A   Clear
5:55 AM 6.6 °F -6.1 °F 2.8 °F 84% 30.01 in 10.0 mi WNW 8.1 mph - N/A   Clear
6:15 AM 5.0 °F -2.1 °F 0.5 °F 82% 30.01 in 10.0 mi WNW 3.5 mph - N/A   Clear
6:35 AM 3.4 °F -5.9 °F -1.7 °F 80% 30.01 in 10.0 mi West 4.6 mph - N/A   Clear
6:55 AM 3.7 °F -10.6 °F -1.7 °F 78% 30.01 in 10.0 mi WNW 9.2 mph - N/A   Clear
7:15 AM 5.0 °F -9.1 °F -0.6 °F 78% 30.01 in 10.0 mi West 9.2 mph - N/A   Clear
7:35 AM 5.4 °F -11.1 °F -0.4 °F 77% 30.02 in 10.0 mi WNW 12.7 mph - N/A   Clear
7:55 AM 5.4 °F -9.6 °F -0.8 °F 76% 30.02 in 10.0 mi WNW 10.4 mph - N/A   Clear
8:15 AM 5.9 °F -8.9 °F -0.4 °F 75% 30.03 in 10.0 mi WNW 10.4 mph - N/A   Scattered Clouds
8:35 AM 4.8 °F -5.8 °F -1.1 °F 76% 30.03 in 10.0 mi West 5.8 mph - N/A   Scattered Clouds
8:55 AM 7.2 °F -5.4 °F 1.2 °F 77% 30.03 in 10.0 mi WNW 8.1 mph - N/A   Clear
9:15 AM 9.1 °F -1.9 °F 3.2 °F 77% 30.03 in 10.0 mi West 6.9 mph - N/A   Clear
9:35 AM 11.5 °F 0.9 °F 4.8 °F 75% 30.03 in 10.0 mi WNW 6.9 mph - N/A   Clear
9:55 AM 14.2 °F 2.2 °F 5.9 °F 70% 30.03 in 10.0 mi West 9.2 mph - N/A   Clear
10:15 AM 15.1 °F 5.2 °F 6.6 °F 69% 30.04 in 10.0 mi West 6.9 mph - N/A   Clear
10:35 AM 16.3 °F 7.8 °F 7.3 °F 68% 30.03 in 10.0 mi WNW 5.8 mph - N/A   Clear
10:55 AM 18.0 °F 11.1 °F 7.9 °F 65% 30.04 in 10.0 mi West 4.6 mph - N/A   Scattered Clouds
11:15 AM 18.3 °F 10.2 °F 9.3 °F 68% 30.04 in 10.0 mi West 5.8 mph - N/A   Overcast
11:35 AM 19.9 °F 14.9 °F 10.9 °F 68% 30.03 in 10.0 mi West 3.5 mph - N/A   Overcast
11:55 AM 23.7 °F 16.6 °F 11.8 °F 61% 30.03 in 10.0 mi WNW 5.8 mph - N/A   Overcast
12:15 PM 25.0 °F 17.1 °F 11.1 °F 56% 30.02 in 10.0 mi WNW 6.9 mph - N/A   Overcast
12:35 PM 25.3 °F 18.5 °F 12.2 °F 58% 30.01 in 10.0 mi WNW 5.8 mph - N/A   Scattered Clouds
12:55 PM 26.2 °F 20.7 °F 11.5 °F 54% 30.00 in 10.0 mi WNW 4.6 mph - N/A   Clear
1:15 PM 26.6 °F 22.6 °F 10.8 °F 51% 29.99 in 10.0 mi NNW 3.5 mph - N/A   Clear
1:35 PM 27.5 °F 22.2 °F 12.2 °F 53% 29.98 in 10.0 mi WNW 4.6 mph - N/A   Clear
1:55 PM 28.4 °F 20.4 °F 12.7 °F 52% 29.98 in 10.0 mi WNW 8.1 mph - N/A   Scattered Clouds
2:15 PM 29.3 °F 23.2 °F 13.8 °F 53% 29.97 in 10.0 mi West 5.8 mph - N/A   Overcast
2:35 PM 28.9 °F 22.8 °F 15.1 °F 56% 29.97 in 10.0 mi West 5.8 mph - N/A   Overcast
2:55 PM 28.9 °F 23.9 °F 14.4 °F 55% 29.96 in 10.0 mi West 4.6 mph - N/A   Overcast
3:15 PM 29.3 °F 23.2 °F 14.9 °F 55% 29.95 in 10.0 mi West 5.8 mph - N/A   Overcast
3:35 PM 29.1 °F - 14.2 °F 54% 29.95 in 10.0 mi Calm Calm - N/A   Overcast
3:55 PM 29.3 °F - 14.4 °F 54% 29.95 in 10.0 mi Calm Calm - N/A   Overcast
4:55 PM 30.6 °F 23.1 °F 15.1 °F 53% 29.94 in 10.0 mi SW 8.1 mph - N/A   Overcast
5:15 PM 30.0 °F 21.1 °F 15.6 °F 55% 29.94 in 10.0 mi SSW 10.4 mph - N/A   Overcast
5:35 PM 29.1 °F 20.6 °F 15.4 °F 57% 29.94 in 10.0 mi SSW 9.2 mph - N/A   Mostly Cloudy
5:55 PM 27.7 °F 20.4 °F 15.8 °F 61% 29.95 in 10.0 mi SW 6.9 mph - N/A   Scattered Clouds
6:15 PM 25.7 °F 19.0 °F 15.3 °F 65% 29.95 in 10.0 mi SW 5.8 mph - N/A   Clear
6:35 PM 23.7 °F 14.7 °F 14.5 °F 68% 29.95 in 10.0 mi SSW 8.1 mph - N/A   Clear
6:55 PM 22.1 °F 13.7 °F 14.4 °F 72% 29.96 in 10.0 mi SSW 6.9 mph - N/A   Clear
7:15 PM 21.7 °F 12.3 °F 14.0 °F 72% 29.96 in 10.0 mi SSW 8.1 mph - N/A   Clear
7:35 PM 19.8 °F 10.8 °F 13.1 °F 75% 29.97 in 10.0 mi SSW 6.9 mph - N/A   Clear
7:55 PM 17.6 °F 10.7 °F 12.0 °F 79% 29.96 in 10.0 mi South 4.6 mph - N/A   Clear
8:15 PM 17.6 °F 10.7 °F 11.7 °F 78% 29.97 in 10.0 mi SSW 4.6 mph - N/A   Clear
8:35 PM 18.1 °F 8.9 °F 11.8 °F 76% 29.97 in 10.0 mi SSW 6.9 mph - N/A   Clear
8:55 PM 16.5 °F 6.9 °F 10.4 °F 77% 29.98 in 10.0 mi SW 6.9 mph - N/A   Clear
9:15 PM 14.9 °F 5.0 °F 9.5 °F 79% 29.98 in 10.0 mi WSW 6.9 mph - N/A   Clear
9:35 PM 14.2 °F 4.1 °F 9.3 °F 81% 29.98 in 10.0 mi WSW 6.9 mph - N/A   Clear
9:55 PM 13.3 °F 4.2 °F 8.4 °F 81% 29.98 in 10.0 mi WNW 5.8 mph - N/A   Clear
10:15 PM 12.9 °F 0.7 °F 8.6 °F 83% 29.98 in 10.0 mi West 9.2 mph - N/A   Clear
10:35 PM 13.8 °F 2.7 °F 9.0 °F 81% 29.98 in 10.0 mi West 8.1 mph - N/A   Clear
10:55 PM 14.0 °F 5.1 °F 9.3 °F 82% 29.98 in 10.0 mi West 5.8 mph - N/A   Clear
11:15 PM 12.9 °F 1.6 °F 8.4 °F 82% 29.98 in 10.0 mi West 8.1 mph - N/A   Clear
11:35 PM 13.8 °F 1.8 °F 8.2 °F 78% 29.98 in 10.0 mi West 9.2 mph - N/A   Clear
11:55 PM 12.7 °F -0.4 °F 7.9 °F 81% 29.98 in 10.0 mi WSW 10.4 mph - N/A   Clear